CDT,Max TemperatureF,Mean TemperatureF,Min TemperatureF,Max Dew PointF,MeanDew PointF,Min DewpointF,Max Humidity, Mean Humidity, Min Humidity, Max Sea Level PressureIn, Mean Sea Level PressureIn, Min Sea Level PressureIn, Max VisibilityMiles, Mean VisibilityMiles, Min VisibilityMiles, Max Wind SpeedMPH, Mean Wind SpeedMPH, Max Gust SpeedMPH,PrecipitationIn, CloudCover, Events, WindDirDegrees
2012-9-1,91,82,73,75,74,72,100,82,55,30.20,30.14,30.07,10,9,1,8,2,,0.00,3,,232
2012-9-2,91,82,73,77,74,73,100,88,55,30.10,30.04,29.98,10,6,0,14,2,,0.00,0,Fog,219
2012-9-3,89,80,71,77,74,70,100,84,59,30.04,29.99,29.91,10,10,6,14,5,24,0.00,5,Rain-Thunderstorm,215
2012-9-4,75,72,69,74,72,70,100,94,88,29.99,29.94,29.90,10,9,0,12,6,20,0.66,7,Fog-Rain-Thunderstorm,181
2012-9-5,84,78,73,75,74,72,100,89,70,29.93,29.89,29.86,10,9,2,15,7,18,0.19,7,Rain,139
2012-9-6,90,80,71,76,73,71,100,85,60,29.99,29.95,29.90,10,9,1,8,3,,0.00,2,Rain,168
2012-9-7,90,80,71,76,73,70,100,86,52,29.98,29.94,29.86,10,7,1,10,1,,0.00,2,Rain,171
2012-9-8,91,80,71,75,73,69,100,85,56,29.88,29.85,29.75,10,7,0,12,2,23,0.00,4,Fog-Thunderstorm,49
2012-9-9,84,76,68,70,63,55,94,73,39,30.00,29.92,29.86,10,10,10,14,7,20,0.00,2,,334
2012-9-10,84,73,62,64,60,57,86,66,40,30.09,30.05,30.00,10,10,10,7,4,,0.00,1,,37
2012-9-11,85,72,61,65,61,56,91,67,39,30.20,30.14,30.08,10,10,10,14,6,20,0.00,1,,62
2012-9-12,86,76,66,65,62,58,85,66,39,30.24,30.18,30.14,10,10,10,13,8,,0.00,3,,65
2012-9-13,84,76,68,66,64,63,87,70,51,30.22,30.17,30.12,10,10,10,12,7,,0.00,3,,49
2012-9-14,85,76,66,67,66,63,93,73,48,30.17,30.13,30.09,10,10,10,12,7,,0.00,3,,32
2012-9-15,88,79,71,70,67,66,86,71,49,30.15,30.09,30.04,10,10,10,9,6,,0.00,3,,60
2012-9-16,90,78,68,72,69,66,94,78,47,30.09,30.04,29.97,10,10,10,10,3,,0.00,3,,93
2012-9-17,82,76,69,75,72,68,100,91,70,30.00,29.88,29.80,10,8,1,14,7,20,0.97,6,Rain-Thunderstorm,145
2012-9-18,83,76,69,73,71,67,100,90,63,29.94,29.78,29.73,10,8,1,15,6,22,0.58,6,Rain-Thunderstorm,216
2012-9-19,81,71,62,66,59,56,93,70,46,30.07,30.02,29.94,10,10,10,8,6,,0.00,0,,331
2012-9-20,84,70,57,65,59,55,92,69,40,30.09,30.04,29.99,10,10,10,6,2,,0.00,0,,346
2012-9-21,86,74,62,69,65,63,100,91,50,30.06,30.04,29.98,10,4,0,7,4,,0.00,3,Fog,44
2012-9-22,88,76,64,69,66,63,96,74,45,30.08,30.04,30.00,10,10,8,8,3,,0.00,0,,303
2012-9-23,87,76,65,66,56,48,86,51,30,30.16,30.12,30.06,10,10,10,12,7,16,0.00,0,Rain,351
2012-9-24,81,69,57,58,49,41,84,52,24,30.19,30.14,30.08,10,10,10,9,5,,0.00,0,Rain,6
2012-9-25,84,67,50,62,56,48,92,69,36,30.17,30.13,30.10,10,10,10,8,4,,0.00,0,,55
2012-9-26,86,73,61,68,63,60,95,71,49,30.18,30.14,30.09,10,10,10,9,5,,0.00,1,,69
2012-9-27,87,76,65,72,68,63,94,81,53,30.18,30.13,30.06,10,10,10,8,5,,0.00,4,,69
2012-9-28,88,77,66,71,68,65,97,77,50,30.11,30.05,29.98,10,10,9,6,2,,0.00,2,,72
2012-9-29,86,76,68,73,70,68,100,86,55,30.01,29.93,29.88,10,10,7,8,2,,0.10,4,Rain,242
2012-9-30,80,74,69,73,71,69,100,94,78,29.88,29.80,29.71,10,8,1,24,3,28,0.61,6,Rain,112